Starlink 32782

operational
NORAD ID: 62821 Int'l Des: 2025-018 Owner: SPXS Country: US Constellation: starlink
LEOCIRCULAR

关于 Starlink 32782

正在加载描述...

实时位置

正在加载3D地球...

即将过境

高度历史

Altitude vs Time

uPlot chart will show altitude changes over time

两行轨道根数

1 62821U 25018R 25304.84593278 .00033086 00000-0 11242-2 0 9997
2 62821 53.1576 187.9335 0001368 72.6009 287.5141 15.30200319 43454
Epoch: Oct 31, 2025 • Age: 16 hours

当前状态

高度 476.5 km
速度 7.63 km/s
星下点 32.77°N, 9.94°W
发射日期 Jan 24, 2025
运行时间 0.7 years
类型 internet

技术详情

分类 Payload
质量 730.00 kg
干质量 700.00 kg
总质量 730.00 kg
长度 0.30 m
直径 4.10 m
跨度 29.00 m
形状 Box + pan
制造商 SPXS
平台类型 Starlink V2M
阶段状态 In Orbit
所有者/国家 SPXS/US

大型星座

Loading constellations...